Palacios, TX

10:11 AM CDT on April 23, 2018 (GMT -0500)
Palacios Municipal

Weather History for KPSX - March, 2014

Change the Weather History Date:

Friday, March 14, 2014

  Actual Average Record
Temperature  
Mean Temperature 64 °F -  
Max Temperature 73 °F 70 °F 80 °F (1982)
Min Temperature 54 °F 51 °F 29 °F (1993)
Degree Days  
Heating Degree Days 2    
Growing Degree Days 14 (Base 50)    
Moisture  
Dew Point 57 °F    
Average Humidity 79    
Maximum Humidity 90    
Minimum Humidity 59    
Precipitation  
Precipitation 0.00 in - - ()
Sea Level Pressure  
Sea Level Pressure 30.06 in    
Wind  
Wind Speed 11 mph (SE)    
Max Wind Speed 20 mph    
Max Gust Speed 25 mph    
Visibility 10 miles    
Events      
Averages and records for this station are not official NWS values.
T = Trace of Precipitation, MM = Missing Value Source: NWS Daily Summary

Daily Weather History Graph

Daily Weather History Graph

Search for Another Location

Airport or City:

Astronomy

Mar. 14, 2014 Rise Set
Actual Time 7:35 AM CDT 7:32 PM CDT
Civil Twilight 7:12 AM CDT 7:56 PM CDT
Nautical Twilight 6:44 AM CDT 8:23 PM CDT
Astronomical Twilight 6:17 AM CDT 8:51 PM CDT
Moon 6:01 PM CDT (3/14) 6:09 AM CDT (3/14)
Length of Visible Light 12h 44m
Length of Day
11h 57m
Waxing Gibbous, 96% of the Moon is Illuminated
Mar 14
Waxing Gibbous
Mar 16
Full
Mar 23
Last Quarter
Mar 30
New
Apr 7
First Quarter

Hourly Weather History & Observations

Time (CDT) Temp. Dew Point Humidity Pressure Visibility Wind Dir Wind Speed Gust Speed Precip Events Conditions
12:53 AM 54.0 °F 51.1 °F 90% 30.15 in 10.0 mi SE 8.1 mph - N/A   Clear
1:53 AM 55.9 °F 52.0 °F 87% 30.12 in 10.0 mi SE 9.2 mph - N/A   Clear
2:53 AM 55.9 °F 53.1 °F 90% 30.10 in 10.0 mi SE 9.2 mph - N/A   Clear
3:53 AM 55.9 °F 53.1 °F 90% 30.09 in 10.0 mi SSE 8.1 mph - N/A   Clear
4:53 AM 55.0 °F 52.0 °F 89% 30.07 in 10.0 mi SE 6.9 mph - N/A   Clear
6:53 AM 54.0 °F 51.1 °F 90% 30.07 in 10.0 mi East 8.1 mph - N/A   Clear
7:53 AM 55.0 °F 52.0 °F 89% 30.07 in 10.0 mi East 8.1 mph - N/A   Clear
8:53 AM 61.0 °F 57.0 °F 87% 30.09 in 10.0 mi ESE 9.2 mph - N/A   Clear
9:53 AM 66.9 °F 57.9 °F 73% 30.10 in 10.0 mi SE 11.5 mph - N/A   Partly Cloudy
10:53 AM 70.0 °F 57.0 °F 63% 30.11 in 10.0 mi SSE 15.0 mph - N/A   Scattered Clouds
11:53 AM 71.1 °F 57.9 °F 63% 30.11 in 10.0 mi SSE 17.3 mph - N/A   Mostly Cloudy
12:53 PM 73.0 °F 57.9 °F 59% 30.10 in 10.0 mi SE 17.3 mph - N/A   Clear
1:53 PM 72.0 °F 59.0 °F 64% 30.08 in 10.0 mi SSE 18.4 mph - N/A   Mostly Cloudy
2:53 PM 72.0 °F 61.0 °F 68% 30.04 in 10.0 mi SE 19.6 mph - N/A   Overcast
3:53 PM 70.0 °F 60.1 °F 71% 30.01 in 10.0 mi SE 19.6 mph 25.3 mph N/A   Overcast
4:53 PM 69.1 °F 60.1 °F 73% 30.00 in 10.0 mi SSE 17.3 mph - N/A   Overcast
5:53 PM 68.0 °F 60.1 °F 76% 30.00 in 10.0 mi SE 16.1 mph - N/A   Overcast
6:53 PM 66.9 °F 60.1 °F 79% 30.00 in 10.0 mi SE 12.7 mph - N/A   Overcast
7:53 PM 66.0 °F 61.0 °F 84% 30.01 in 10.0 mi SE 12.7 mph - N/A   Overcast
9:53 PM 66.0 °F 61.0 °F 84% 30.01 in 10.0 mi SE 11.5 mph - N/A   Overcast
10:53 PM 64.9 °F 62.1 °F 90% 30.01 in 10.0 mi SE 12.7 mph - N/A   Scattered Clouds
11:53 PM 64.9 °F 62.1 °F 90% 30.01 in 9.0 mi SE 10.4 mph - N/A   Overcast